Meteo Giornale » Osservazioni meteo Italia » Bologna-Borgo Panigale

ore: 23:50 - Osservazioni Meteo Bologna-Borgo Panigale
Lat. 44° 32' N Lon. 11° 18' E Alt. 36 metri s.l.m.

nuvoloso Europe/Rome

16 °C

Nuvoloso

Temp. 24 Ore

12 °C

22 °C

Nord

3.7 Km/h

Dew point 15 °C

Umidità 93 %

Visibilità  10 Km

Il sole sorge alle ore 05:44

Il sole tramonta alle ore 20:38

Data e Ora Cielo e Fenomeni T °C DP °C Um. % Pres. hPa Vis. km Vento km/h
Ieri h: 23:50 nuvoloso Nuvoloso 16 15 93 1005 10 N 3.7
Ieri h: 23:20 nuvoloso Nuvoloso 17 15 88 1005 10 O 13
Ieri h: 22:50 sereno Sereno 17 13 77 1005 10 O 7.4
Ieri h: 22:20 poco_nuvoloso Poco Nuvoloso 17 13 77 1005 10 O/NO 7.4
Ieri h: 21:20 sereno Sereno 19 12 63 1004 10 S/SE 7.4
Ieri h: 20:50 sereno Sereno 19 12 63 1005 10 S/SO 7.4
Ieri h: 20:20 poco_nuvoloso Poco Nuvoloso 20 12 59 1005 10 S/SO 11.1
Ieri h: 19:50 nuvoloso Nuvoloso 20 12 59 1005 10 S/SO 11.1
Ieri h: 19:20 poco_nuvoloso Poco Nuvoloso 21 12 56 1005 10 S/SO 14.8
Ieri h: 18:50 poco_nuvoloso Poco Nuvoloso 21 12 56 1005 10 SO 14.8
Ieri h: 18:20 poco_nuvoloso Poco Nuvoloso 22 12 53 1005 10 S/SO 18.5
Ieri h: 17:50 nuvoloso Nuvoloso 22 12 53 1005 10 S/SO 16.7
Ieri h: 17:20 molto_nuvoloso Molto Nuvoloso 21 12 56 1006 10 S 14.8
Ieri h: 16:50 sereno Sereno 22 13 56 1006 10 S 16.7
Ieri h: 16:20 poco_nuvoloso Poco Nuvoloso 21 13 60 1006 10 S 14.8
Ieri h: 15:50 nuvoloso Nuvoloso 20 13 64 1007 10 S 14.8
Ieri h: 15:20 molto_nuvoloso Molto Nuvoloso 21 12 56 1007 10 S 16.7
Ieri h: 14:50 molto_nuvoloso Molto Nuvoloso 21 12 56 1007 10 S/SE 7.4
Ieri h: 14:20 molto_nuvoloso Molto Nuvoloso 21 12 56 1007 10 S/SE 9.3
Ieri h: 13:50 molto_nuvoloso Molto Nuvoloso 21 13 60 1008 10 N 5.5
Ieri h: 13:20 molto_nuvoloso Molto Nuvoloso 20 14 68 1008 10 E/NE 9.3
Ieri h: 12:50 molto_nuvoloso Molto Nuvoloso 19 14 72 1008 10 E/NE 7.4
Ieri h: 12:20 molto_nuvoloso Molto Nuvoloso 19 13 68 1008 10 NE 7.4
Ieri h: 11:50 molto_nuvoloso Molto Nuvoloso 18 13 72 1008 10 N 5.5
Ieri h: 11:20 molto_nuvoloso Molto Nuvoloso 18 12 67 1008 10 N 5.5
Ieri h: 10:50 molto_nuvoloso Molto Nuvoloso 17 11 67 1008 10 N 3.7
Ieri h: 10:20 molto_nuvoloso Molto Nuvoloso 17 11 67 1008 10 N 5.5
Ieri h: 09:50 molto_nuvoloso Molto Nuvoloso 17 10 63 1008 10 N 3.7
Ieri h: 09:20 molto_nuvoloso Molto Nuvoloso 16 10 67 1008 10 N 5.5
Ieri h: 08:50 nuvoloso Nuvoloso 15 10 72 1008 10 N 3.7
Ieri h: 08:20 poco_nuvoloso Poco Nuvoloso 14 11 82 1008 10 N 5.5
Ieri h: 07:50 sereno Sereno 15 12 82 1008 10 N 3.7
Ieri h: 07:20 sereno Sereno 14 12 87 1008 10 N 1.8
Ieri h: 06:50 sereno Sereno 14 11 82 1007 10 N 5.5
Ieri h: 06:20 sereno Sereno 12 9 81 1007 10 N 5.5
Ieri h: 05:50 sereno Sereno 12 9 81 1007 10 N 3.7
Ieri h: 05:20 sereno Sereno 13 9 76 1007 10 N 5.5
Ieri h: 04:20 poco_nuvoloso Poco Nuvoloso 12 9 81 1007 10 N 3.7
Ieri h: 03:50 sereno Sereno 13 10 81 1007 10 N 5.5
Ieri h: 02:50 sereno Sereno 12 9 81 1007 10 N 1.8
Ieri h: 02:20 sereno Sereno 12 9 81 1007 10 N/NO 7.4
Ieri h: 01:20 sereno Sereno 14 9 71 1007 10 S 7.4
Ieri h: 00:50 sereno Sereno 15 9 67 1007 10 S 7.4